Weather History for KGDJ - July, 2013

Change the Weather History Date:

Friday, July 12, 2013

  Actual Average (KSEP) Record (KSEP)
Temperature  
Mean Temperature 88 °F -  
Max Temperature 104 °F 93 °F 108 °F (1954)
Min Temperature 74 °F 71 °F 61 °F (1925)
Cooling Degree Days 24    
Growing Degree Days 38 (Base 50)    
Moisture  
Dew Point 64 °F    
Average Humidity 46    
Maximum Humidity 77    
Minimum Humidity 23    
Precipitation  
Precipitation 0.00 in - - ()
Sea Level Pressure  
Sea Level Pressure 29.94 in    
Wind  
Wind Speed 4 mph (ESE)    
Max Wind Speed 14 mph    
Max Gust Speed 20 mph    
Visibility 10 miles    
Events      
Averages and records for this station are not official NWS values.
T = Trace of Precipitation, MM = Missing Value Source: NWS Daily Summary

Daily Weather History Graph

Daily Weather History Graph

Search for Another Location

Airport or City:

Trip Planner

Search our weather history database for the weather conditions in past years. The results will help you decide how hot, cold, wet, or windy it might be!

Date:

Astronomy

Jul. 12, 2013 Rise Set
Actual Time 6:33 AM CDT 8:40 PM CDT
Civil Twilight 6:05 AM CDT 9:08 PM CDT
Nautical Twilight 5:31 AM CDT 9:42 PM CDT
Astronomical Twilight 4:54 AM CDT 10:18 PM CDT
Moon 10:34 AM CDT (7/12) 11:10 PM CDT (7/12)
Length of Visible Light 15h 02m
Length of Day
14h 07m
Waxing Crescent, 17% of the Moon is Illuminated
Jul 12
Waxing Crescent
Jul 15
First Quarter
Jul 22
Full
Jul 29
Last Quarter
Aug 6
New

Hourly Weather History & Observations

Time (CDT) Temp. Heat Index Dew Point Humidity Pressure Visibility Wind Dir Wind Speed Gust Speed Precip Events Conditions
12:15 AM 82.9 °F 86.7 °F 69.8 °F 64% 29.96 in 10.0 mi ESE 3.5 mph - N/A   Clear
12:35 AM 82.6 °F 86.1 °F 69.4 °F 64% 29.96 in 10.0 mi SE 4.6 mph - N/A   Clear
12:55 AM 82.4 °F 85.8 °F 69.1 °F 64% 29.95 in 10.0 mi SE 4.6 mph - N/A   Clear
1:15 AM 81.5 °F 84.6 °F 68.9 °F 65% 29.95 in 10.0 mi Calm Calm - N/A   Clear
1:35 AM 81.1 °F 84.2 °F 68.9 °F 66% 29.94 in 10.0 mi ESE 5.8 mph - N/A   Clear
1:55 AM 81.0 °F 84.1 °F 68.9 °F 67% 29.94 in 10.0 mi SE 3.5 mph - N/A   Clear
2:15 AM 80.1 °F 82.7 °F 68.4 °F 67% 29.93 in 10.0 mi Calm Calm - N/A   Clear
2:35 AM 80.1 °F 82.7 °F 68.4 °F 67% 29.93 in 10.0 mi Calm Calm - N/A   Clear
2:55 AM 78.8 °F - 68.2 °F 70% 29.93 in 10.0 mi Calm Calm - N/A   Clear
3:15 AM 79.3 °F - 68.9 °F 70% 29.93 in 10.0 mi East 5.8 mph - N/A   Clear
3:35 AM 79.3 °F - 68.9 °F 70% 29.94 in 10.0 mi ESE 4.6 mph - N/A   Clear
3:55 AM 79.0 °F - 68.9 °F 71% 29.93 in 10.0 mi Calm Calm - N/A   Clear
4:15 AM 78.8 °F - 68.9 °F 72% 29.94 in 10.0 mi Calm Calm - N/A   Clear
4:35 AM 77.5 °F - 68.2 °F 73% 29.94 in 10.0 mi Calm Calm - N/A   Clear
4:55 AM 78.3 °F - 68.7 °F 72% 29.94 in 10.0 mi SSE 3.5 mph - N/A   Clear
5:15 AM 77.7 °F - 68.2 °F 72% 29.93 in 10.0 mi Calm Calm - N/A   Clear
5:35 AM 76.1 °F - 68.0 °F 76% 29.94 in 10.0 mi Calm Calm - N/A   Clear
5:55 AM 76.6 °F - 68.2 °F 75% 29.94 in 10.0 mi Calm Calm - N/A   Clear
6:15 AM 74.8 °F - 67.3 °F 77% 29.95 in 10.0 mi Calm Calm - N/A   Clear
6:35 AM 77.0 °F - 68.4 °F 75% 29.95 in 10.0 mi Calm Calm - N/A   Clear
6:55 AM 77.2 °F - 68.4 °F 74% 29.96 in 10.0 mi Calm Calm - N/A   Clear
7:15 AM 77.9 °F - 68.2 °F 72% 29.97 in 10.0 mi SE 4.6 mph - N/A   Clear
7:35 AM 78.1 °F - 67.6 °F 70% 29.97 in 10.0 mi SE 3.5 mph - N/A   Clear
7:55 AM 79.7 °F - 67.8 °F 67% 29.98 in 10.0 mi Calm Calm - N/A   Clear
8:15 AM 80.8 °F 83.5 °F 68.0 °F 65% 29.98 in 10.0 mi Calm Calm - N/A   Clear
8:35 AM 82.2 °F 85.1 °F 67.8 °F 62% 29.98 in 10.0 mi Calm Calm - N/A   Clear
8:55 AM 84.4 °F 87.1 °F 67.3 °F 56% 29.99 in 10.0 mi Calm Calm - N/A   Clear
9:15 AM 86.5 °F 89.0 °F 66.2 °F 51% 29.99 in 10.0 mi Calm Calm - N/A   Clear
9:35 AM 89.1 °F 91.0 °F 65.5 °F 45% 29.99 in 10.0 mi Calm Calm - N/A   Clear
9:55 AM 90.1 °F 92.3 °F 65.3 °F 44% 29.99 in 10.0 mi SW 3.5 mph - N/A   Clear
10:15 AM 90.9 °F 93.1 °F 65.3 °F 43% 29.98 in 10.0 mi SSW 5.8 mph - N/A   Clear
10:35 AM 91.6 °F 93.1 °F 64.2 °F 40% 29.98 in 10.0 mi Calm Calm - N/A   Clear
10:55 AM 93.2 °F 94.9 °F 64.0 °F 38% 29.98 in 10.0 mi Calm Calm - N/A   Clear
11:15 AM 94.1 °F 95.5 °F 63.1 °F 36% 29.98 in 10.0 mi Calm Calm - N/A   Clear
11:35 AM 96.4 °F 97.0 °F 61.5 °F 31% 29.98 in 10.0 mi SE 3.5 mph - N/A   Clear
11:55 AM 96.3 °F 96.7 °F 61.2 °F 31% 29.97 in 10.0 mi East 4.6 mph - N/A   Clear
12:15 PM 97.3 °F 97.9 °F 60.8 °F 30% 29.97 in 10.0 mi East 5.8 mph - N/A   Clear
12:35 PM 98.4 °F 98.7 °F 59.7 °F 28% 29.97 in 10.0 mi ESE 3.5 mph - N/A   Clear
12:55 PM 98.1 °F 98.1 °F 59.9 °F 28% 29.97 in 10.0 mi East 5.8 mph - N/A   Clear
1:15 PM 99.9 °F 99.9 °F 59.5 °F 26% 29.97 in 10.0 mi ENE 5.8 mph - N/A   Clear
1:35 PM 99.5 °F 100.4 °F 60.8 °F 28% 29.96 in 10.0 mi SE 9.2 mph - N/A   Clear
1:55 PM 99.3 °F 99.6 °F 60.3 °F 27% 29.95 in 10.0 mi Calm Calm - N/A   Clear
2:15 PM 100.2 °F 100.5 °F 59.9 °F 26% 29.94 in 10.0 mi NNE 8.1 mph - N/A   Clear
2:35 PM 100.8 °F 101.3 °F 59.9 °F 26% 29.94 in 10.0 mi Calm Calm - N/A   Clear
2:55 PM 100.9 °F 101.0 °F 59.5 °F 25% 29.93 in 10.0 mi East 8.1 mph - N/A   Clear
3:15 PM 101.8 °F 102.4 °F 59.7 °F 25% 29.92 in 10.0 mi East 9.2 mph - N/A   Clear
3:35 PM 101.5 °F 101.9 °F 59.0 °F 25% 29.92 in 10.0 mi ESE 8.1 mph - N/A   Clear
3:55 PM 102.2 °F 102.4 °F 58.5 °F 24% 29.91 in 10.0 mi East 4.6 mph - N/A   Clear
4:15 PM 102.6 °F 102.4 °F 58.1 °F 23% 29.91 in 10.0 mi NE 5.8 mph - N/A   Clear
4:35 PM 103.6 °F 104.1 °F 58.5 °F 23% 29.90 in 10.0 mi ESE 9.2 mph - N/A   Clear
4:55 PM 103.3 °F 103.5 °F 58.3 °F 23% 29.90 in 10.0 mi ENE 3.5 mph - N/A   Clear
5:15 PM 102.9 °F 103.0 °F 59.0 °F 23% 29.90 in 10.0 mi ESE 9.2 mph - N/A   Clear
5:35 PM 102.0 °F 102.2 °F 59.4 °F 24% 29.89 in 10.0 mi SE 6.9 mph - N/A   Scattered Clouds
5:55 PM 101.5 °F 102.4 °F 61.0 °F 26% 29.89 in 10.0 mi East 12.7 mph - N/A   Scattered Clouds
6:15 PM 102.0 °F 103.3 °F 60.8 °F 26% 29.88 in 10.0 mi ESE 9.2 mph 17.3 mph N/A   Clear
6:35 PM 101.8 °F 103.0 °F 60.8 °F 26% 29.88 in 10.0 mi ESE 11.5 mph 17.3 mph N/A   Scattered Clouds
6:55 PM 101.1 °F 102.4 °F 61.0 °F 27% 29.88 in 10.0 mi ESE 13.8 mph 19.6 mph N/A   Clear
7:15 PM 100.6 °F 101.6 °F 60.8 °F 27% 29.88 in 10.0 mi ESE 9.2 mph - N/A   Clear
7:35 PM 99.9 °F 100.4 °F 60.1 °F 27% 29.88 in 10.0 mi East 10.4 mph 16.1 mph N/A   Clear
7:55 PM 99.3 °F 99.6 °F 60.1 °F 27% 29.89 in 10.0 mi ESE 10.4 mph - N/A   Clear
8:15 PM 98.4 °F 98.7 °F 59.9 °F 28% 29.89 in 10.0 mi East 8.1 mph - N/A   Clear
8:35 PM 97.2 °F 97.6 °F 61.2 °F 30% 29.90 in 10.0 mi ESE 6.9 mph - N/A   Clear
8:55 PM 96.1 °F 96.4 °F 60.8 °F 31% 29.90 in 10.0 mi East 5.8 mph - N/A   Clear
9:15 PM 95.4 °F 96.2 °F 61.7 °F 33% 29.90 in 10.0 mi East 4.6 mph - N/A   Clear
9:35 PM 94.1 °F 94.6 °F 61.9 °F 34% 29.90 in 10.0 mi ESE 4.6 mph - N/A   Clear
9:55 PM 93.2 °F 94.1 °F 62.6 °F 36% 29.91 in 10.0 mi ESE 5.8 mph - N/A   Clear
10:15 PM 92.3 °F 93.4 °F 63.5 °F 38% 29.91 in 10.0 mi ESE 4.6 mph - N/A   Clear
10:35 PM 91.4 °F 92.4 °F 63.5 °F 39% 29.92 in 10.0 mi ESE 3.5 mph - N/A   Clear
10:55 PM 90.5 °F 91.8 °F 63.5 °F 41% 29.92 in 10.0 mi ESE 4.6 mph - N/A   Clear
11:15 PM 90.1 °F 91.6 °F 64.4 °F 42% 29.93 in 10.0 mi ESE 6.9 mph - N/A   Clear
11:35 PM 90.0 °F 91.0 °F 63.5 °F 41% 29.94 in 10.0 mi ESE 6.9 mph - N/A   Clear
11:55 PM 89.6 °F 90.8 °F 63.7 °F 42% 29.94 in 10.0 mi ESE 8.1 mph - N/A   Clear